Location: The Saddle
(36.8333°N, 80.3417°W)
Time: 12:38:34
(UTC-04:00)

SR - Pass Details

Date: 02 June 2024
Orbit: 580 x 858 km, 66.7° (Epoch: 14 June)

Event Time Altitude Azimuth Distance (km) Brightness Sun altitude
Rises 00:47:52 0° 343° (NNW) 2,828 ? -30.4°
Reaches altitude 10° 00:50:24 10° 356° (N) 1,907 ? -30.5°
Enters shadow 00:53:02 24° 31° (NNE) 1,210 ? -30.6°
